#timestamp,LO_Frequency,Hit,StdDev 
1531209615.2,286047003.9,Y
1531209635.1,286047002.5,P
1531209636.0,286047002.5,N
1531209655.8,286047001.6,N
1531209675.7,286047001.6,N
1531209695.5,286047002.4,N
1531209715.3,286047000.0,N
1531209735.2,286047002.1,N
1531209755.9,286047000.7,N
1531209775.7,286047001.2,N
1531209795.6,286047001.1,N
1531209815.4,286047001.0,N
1531209835.3,286047000.6,N
1531209855.1,286046998.1,N
1531209856.0,286046998.1,N
1531209875.8,286046998.2,N
1531209895.7,286046998.8,N
1531209915.5,286046998.7,N
1531209935.3,286046998.3,N
1531209955.2,286046998.8,N
1531209975.0,286046996.6,N
1531209975.9,286046996.6,N
1531209995.8,286046996.5,N
1531210015.6,286046999.5,N
1531210035.4,286046996.7,N
1531210055.3,286046998.3,N
1531210075.1,286047001.0,N
1531210095.8,286047001.0,N
1531210115.7,286047002.4,N
1531210135.5,286047004.1,N
1531210155.3,286047001.8,N
1531210175.2,286047002.7,N
1531210195.0,286046999.8,N
1531210195.9,286046999.8,N
1531210215.8,286046999.9,N
1531210235.6,286047002.5,N
1531210255.4,286047000.1,N
1531210275.3,286047004.2,N
1531210295.1,286047001.5,N
1531210315.9,286047001.7,N
1531210335.7,286047004.3,N
1531210355.5,286047003.9,N
1531210375.4,286047004.1,N
1531210395.2,286047005.6,N
1531210415.0,286047005.1,N
1531210415.9,286047005.1,N
1531210435.8,286047005.0,N
1531210455.6,286047008.8,Y
1531210475.5,286047005.2,P
1531210495.3,286047007.6,P
1531210515.1,286047007.5,N
1531210535.9,286047007.4,N
1531210555.7,286047008.2,Y
1531210575.5,286047003.5,P
1531210595.4,286047004.1,P
1531210615.2,286047004.3,P
1531210635.1,286047003.2,Y
1531210636.0,286047003.2,P
1531210655.8,286046999.0,N
1531210675.6,286046998.3,N
1531210695.5,286047000.7,N
1531210715.3,286046999.0,N
1531210735.2,286046998.3,N
1531210755.9,286047001.1,N
1531210775.7,286046997.9,N
1531210795.6,286046999.4,N
1531210815.4,286046998.3,N
1531210835.2,286046999.0,N
1531210855.1,286046999.6,N
1531210856.0,286046999.6,N
1531210875.8,286046998.2,N
1531210895.7,286046999.1,N
1531210915.5,286046996.2,N
1531210935.3,286046996.4,N
1531210955.2,286046993.6,Y
1531210975.0,286046995.9,P
1531210975.9,286046995.9,N
1531210995.8,286046995.2,N
1531211015.6,286046996.8,N
1531211035.4,286046997.2,N
1531211055.3,286046997.7,N
1531211075.1,286047011.9,Y
1531211095.8,286047002.5,P
1531211115.7,286047004.9,N
1531211135.5,286047006.8,N
1531211155.4,286047007.4,N
1531211175.2,286047005.8,N
1531211195.0,286047005.2,N
1531211195.9,286047005.2,N
1531211215.8,286047007.0,N
1531211235.6,286047006.2,N
1531211255.4,286047008.0,N
1531211275.3,286047008.8,N
1531211295.1,286047006.1,N
1531211315.9,286047007.8,N
1531211335.7,286047009.5,Y
1531211355.5,286047004.3,P
1531211375.4,286047005.1,P
1531211395.2,286047003.1,P
1531211415.1,286047005.7,Y
1531211416.0,286047005.7,P
1531211435.8,286047002.8,P
1531211455.6,286047004.4,P
1531211475.5,286047004.2,Y
1531211495.3,286046999.4,P
1531211515.1,286047001.1,N
1531211535.9,286046999.6,N
1531211555.7,286046996.5,N
1531211575.6,286046995.3,N
1531211595.4,286046995.9,N
1531211615.2,286046997.4,N
1531211635.1,286046996.6,N
1531211636.0,286046996.6,N
1531211655.8,286046997.0,N
1531211675.7,286046997.1,N
1531211695.5,286046997.0,N
1531211715.3,286046999.4,N
1531211735.2,286047001.0,N
1531211755.0,286047000.2,N
1531211755.9,286047000.2,N
1531211775.7,286047002.7,N
1531211795.6,286047001.6,N
1531211815.4,286046999.9,N
1531211835.3,286047000.9,N
1531211855.1,286046999.4,N
1531211856.0,286046999.4,N
1531211875.8,286046997.2,N
1531211895.7,286046995.0,N
1531211915.5,286046996.1,N
1531211935.3,286046995.9,N
1531211955.2,286046993.5,N
1531211975.0,286046993.6,N
1531211975.9,286046993.6,N
1531211995.8,286046991.7,Y
1531212015.6,286046995.5,P
1531212035.4,286046995.9,P
1531212055.3,286046993.4,P
1531212075.1,286046993.3,Y
1531212095.9,286046999.5,P
1531212115.7,286046996.8,N
1531212135.5,286046997.2,N
1531212155.4,286046996.6,N
1531212175.2,286046997.4,N
1531212195.0,286046995.0,Y
1531212196.0,286046995.0,P
1531212215.8,286046999.0,N
1531212235.6,286046996.6,N
1531212255.5,286046998.8,N
1531212275.3,286046998.7,N
1531212295.1,286047000.6,N
1531212315.9,286047011.9,Y
1531212335.7,286047002.5,P
1531212355.6,286046999.9,N
1531212375.4,286047000.3,N
1531212395.2,286047000.9,N
1531212415.1,286047001.2,N
1531212416.0,286047001.2,N
1531212435.8,286046999.6,N
1531212455.6,286046997.8,N
1531212475.5,286046997.4,N
1531212495.3,286046997.8,N
1531212515.2,286046997.3,N
1531212535.9,286046998.0,N
1531212555.7,286046998.0,N
1531212575.6,286046997.2,N
1531212595.4,286046995.5,N
1531212615.2,286046993.9,Y
1531212635.1,286046994.4,P
1531212636.0,286046994.4,N
1531212655.8,286046992.6,P
1531212675.7,286046994.5,N
1531212695.5,286046994.2,N
1531212715.3,286046991.7,Y
1531212735.2,286046999.3,P
1531212755.0,286047000.8,N
1531212755.9,286047000.8,N
1531212775.8,286047000.7,N
1531212795.6,286047000.9,N
1531212815.4,286047000.4,N
1531212835.3,286047000.1,N
1531212855.1,286047000.2,N
1531212875.9,286047000.2,N
1531212895.7,286047000.2,N
1531212915.5,286046999.7,N
1531212935.4,286047000.1,N
1531212955.2,286047000.7,N
1531212975.0,286046998.8,N
1531212975.9,286046998.8,N
1531212995.8,286046999.3,N
1531213015.6,286046997.7,N
1531213035.5,286046995.4,Y
1531213055.3,286046995.9,P
1531213075.1,286046996.4,N
1531213095.9,286046995.0,P
1531213115.7,286046999.4,N
1531213135.5,286046999.0,N
1531213155.4,286046996.5,N
1531213175.2,286046999.2,N
1531213195.1,286047001.2,N
1531213196.0,286047001.2,N
